Flag for Germany Weather past 2 weeks in Kiel, Schleswig-Holstein, Germany

Now
53 °F

Sunny.


Feels Like: 50 °F
Forecast: 42 / 58 °F
Wind: 7 mph from Northeast

Location: Kiel-Holtenau


UV Index: 3 (Moderate)

Visibility: 10 mi


Pressure: 29.93 "Hg

Humidity: 78%

Dew point: 46 °F

Location of KielLocation

Historic Weather in Kiel

°F

Kiel temperature yesterday

Maximum temperature yesterday: 55 °F (at 5:00 PM)
Minimum temperature yesterday: 40 °F (at 6:00 AM)
Average temperature yesterday: 48 °F

Past Weeks' High & Low Weather Summary

 TemperatureHumidityPressure
High63 °F (Apr 7, 3:00 PM)100% (Apr 6, 6:00 AM)30.47 "Hg (Apr 6, 6:00 AM)
Low32 °F (Apr 16, 4:00 AM)40% (Apr 16, 5:00 PM)29.61 "Hg (Apr 8, 10:00 AM)
Average49 °F81%30.01 "Hg
* Reported Apr 5 8:00 PM — Apr 20 8:00 PM, Kiel, Weather by CustomWeather, © 2014

Note: Actual official high and low records may vary slightly from our data, if they occured in-between our weather recording intervals... More about our weather records

Advertising

Historic Weather Conditions — Data for Previous 24 hours

 ConditionsComfort  
Time TempWeatherWind HumidityBarometerVisibility
8:00 PM
Apr 20
53 °FSunny.7 mph78%29.93 "Hg10 mi
7:00 PM55 °FSunny.6 mph75%29.93 "Hg9 mi
6:00 PM56 °FSunny.8 mph73%29.93 "Hg12 mi
5:00 PM58 °FSunny.8 mph71%29.94 "Hg8 mi
4:00 PM58 °FPassing clouds.9 mph72%29.96 "Hg7 mi
3:00 PM58 °FSunny.8 mph74%29.97 "Hg5 mi
2:00 PM58 °FSunny.8 mph75%29.99 "Hg4 mi
1:00 PM57 °FSunny.8 mph76%30.00 "Hg5 mi
12:00 PM56 °FSunny.7 mph79%30.01 "Hg8 mi
11:00 AM54 °FSunny.7 mph79%30.02 "Hg6 mi
10:00 AM53 °FSunny.8 mph81%30.02 "Hg8 mi
9:00 AM51 °FSunny.7 mph83%30.03 "Hg6 mi
8:00 AM49 °FSunny.7 mph85%30.03 "Hg9 mi
7:00 AM47 °FSunny.7 mph86%30.03 "Hg9 mi
6:00 AM47 °FClear.7 mph86%30.04 "Hg9 mi
5:00 AM47 °FClear.6 mph87%30.05 "Hg9 mi
4:00 AM47 °FClear.6 mph86%30.06 "Hg10 mi
3:00 AM48 °FClear.6 mph84%30.07 "Hg11 mi
2:00 AM48 °FClear.6 mph85%30.09 "Hg10 mi
1:00 AM49 °FClear.5 mph82%30.12 "Hg9 mi
12:00 AM49 °FClear.6 mph83%30.13 "Hg8 mi
11:00 PM
Apr 19
49 °FClear.6 mph87%30.14 "Hg6 mi
10:00 PM49 °FClear.5 mph87%30.15 "Hg6 mi
9:00 PM50 °FClear.6 mph84%30.16 "Hg7 mi
Weather by CustomWeather, © 2014

See weather overview